Погода в Нежнуре

Россия / Республика Марий Эл     56°56′02″N   46°38′41″E
темп.,
°C
ветер,
м/с
пор.,
м/с
влажн.,
%
обл.,
%
осадки,
мм/ч
давл.,
гПа
погр.,
м
16 мая, вс
вс1600:00+17ююз38866 0.1 1013146
03:00+16ююз229454 0.9 101420
06:00+18ююз358697 0.0 1013175
09:00+23ююз3564100 0.0 1013763
12:00+26юз46525 0.0 10131643
15:00+25юз4756100 0.0 1013526
18:00+19ю610825 2.1 1014282
21:00+17ююз3593100 2.4 101575
17 мая, пн
пн1700:00+15юз33885 0.0 101543
03:00+14зюз33901 0.0 101639
06:00+16зюз23805 0.0 1017116
09:00+22зюз2358100 0.0 1018626
12:00+25з24425 0.0 10181579
15:00+26з24415 0.0 10171704
18:00+24ссз22575 0.0 101735
21:00+18всв22679 0.0 101814
18 мая, вт
вт1800:00+16в3580100 0.3 101868
03:00+15в3583100 0.3 101969
06:00+16в4882100 0.0 1019212
09:00+21вюв5669100 0.3 1019441
12:00+25вюв5656100 0.0 1019907
15:00+26в5656100 0.0 10181080
18:00+23в51070100 0.0 1018300
21:00+18вюв4118598 0.0 1018203
19 мая, ср
ср1900:00+17вюв4128690 0.0 1018232
03:00+15вюв498834 0.0 1018169
06:00+17вюв4127662 0.0 1018348
09:00+22юв68565 0.0 1018646
12:00+25вюв684649 0.0 10171218
15:00+26вюв67475 0.0 10161480
18:00+22вюв510580 0.0 1015383
21:00+16вюв4117214 0.0 1015223
20 мая, чт
чт2000:00+15вюв413750 0.0 1014267
03:00+14вюв410850 0.0 1013197
06:00+17юв512790 0.0 1013427
09:00+21ююв796521 0.0 10121139
12:00+22ююв7106739 0.8 10121346
15:00+19ююв71066100 1.5 1013803
18:00+18ююв6117047 0.1 1012869
21:00+14ю388899 0.9 1012134